This demonstration page uses our WeatherBlox Daily Observations layout. Learn more.

Left ArrowRight Arrow

34.02893, -84.19858

Hourly Observations for July 13, 2018

Temp ( °F °C ) Dew Point ( °F °C ) Humidity (%) Winds ( mph kmh ) Pressure ( in mb ) Visibility ( mi km ) Precip ( " mm )
12:53 am 00:53 Clear 78 25.6 72 22.2 82 82 WSW 3 6 30.04 1017 10 16 0.00 0.00
1:53 am 01:53 Clear 78 25.6 73 22.8 85 85 Calm 30.03 1017 10 16 0.00 0.00
2:53 am 02:53 Clear 77 25 73 22.8 88 88 WSW 3 6 30.03 1017 10 16 0.00 0.00
3:53 am 03:53 Partly Cloudy 75 23.9 73 22.8 94 94 E 6 9 30.04 1017 8 13 0.00 0.00
4:53 am 04:53 Clear 76 24.4 72 22.2 88 88 VRB 3 6 30.04 1017 10 16 0.00 0.00
5:13 am 05:13 Partly Cloudy 76 24.4 73 22.8 91 91 VRB 3 6 30.09 1019 9 14 0.00 0.00
5:53 am 05:53 Clear 75 23.9 73 22.8 94 94 VRB 5 7 30.05 1018 8 13 0.00 0.00
6:53 am 06:53 Sunny 75 23.9 72 22.2 90 90 Calm 30.07 1018 8 13 0.00 0.00
7:53 am 07:53 Sunny 76 24.4 72 22.2 88 88 VRB 3 6 30.08 1019 8 13 0.00 0.00
8:35 am 08:35 Mostly Cloudy 77 25 73 22.8 88 88 NE 5 7 30.12 1020 8 13 0.00 0.00
8:53 am 08:53 Mostly Cloudy 79 26.1 73 22.8 82 82 Calm 30.09 1019 8 13 0.00 0.00
9:53 am 09:53 Mostly Cloudy 78 25.6 73 22.8 85 85 Calm 30.12 1020 8 13 0.00 0.00
10:00 am 10:00 Cloudy 77 25 73 22.8 88 88 ESE 3 6 30.15 1021 8 13 0.00 0.00
10:53 am 10:53 Cloudy 78 25.6 73 22.8 85 85 SE 3 6 30.12 1020 8 13 0.00 0.00
11:53 am 11:53 Cloudy 80 26.7 73 22.8 79 79 Calm 30.12 1020 8 13 0.00 0.00
12:00 pm 12:00 Cloudy 80 26.7 73 22.8 79 79 Calm 30.12 1020 8 13 0.00 0.00
12:53 pm 12:53 Cloudy 82 27.8 73 22.8 74 74 VRB 3 6 30.11 1020 9 14 0.00 0.00
1:53 pm 13:53 Mostly Cloudy 85 29.4 74 23.3 70 70 Calm 30.09 1019 8 13 0.00 0.00
2:14 pm 14:14 Mostly Sunny 88 31.1 74 23.3 63 63 Calm 30.09 1019 8 13 0.00 0.00
2:53 pm 14:53 Mostly Cloudy 85 29.4 73 22.8 68 68 Calm 30.06 1018 9 14 0.00 0.00
3:53 pm 15:53 Partly Cloudy 88 31.1 74 23.3 63 63 VRB 5 7 30.05 1018 9 14 0.00 0.00
4:53 pm 16:53 Sunny 90 32.2 72 22.2 56 56 VRB 3 6 30.03 1017 10 16 0.00 0.00
5:53 pm 17:53 Sunny 87 30.6 73 22.8 63 63 S 5 7 30.03 1017 9 14 0.00 0.00
6:53 pm 18:53 Mostly Cloudy 83 28.3 73 22.8 72 72 S 13 20 30.03 1017 10 16 0.00 0.00
7:22 pm 19:22 Mostly Cloudy with Nearby Thunderstorms 82 27.8 73 22.8 74 74 SSW 8 13 30.03 1017 10 16 0.00 0.00
7:45 pm 19:45 Mostly Cloudy 82 27.8 73 22.8 74 74 S 8 13 30.03 1017 10 16 0.00 0.00
7:53 pm 19:53 Cloudy 82 27.8 73 22.8 74 74 S 7 11 30.02 1017 10 16 0.00 0.00
8:00 pm 20:00 Mostly Cloudy with Nearby Thunderstorms 82 27.8 73 22.8 74 74 SSW 6 9 30.03 1017 10 16 0.00 0.00
8:18 pm 20:18 Cloudy with Thunderstorms 81 27.2 73 22.8 77 77 Calm 30.03 1017 10 16 0.00 0.00
8:33 pm 20:33 Cloudy with Nearby Thunderstorms 81 27.2 73 22.8 77 77 E 3 6 30.06 1018 10 16 0.00 0.00
8:53 pm 20:53 Cloudy with Thunderstorms 76 24.4 73 22.8 91 91 VRB 7 11 30.07 1018 10 16 0.00 0.00
9:05 pm 21:05 Cloudy with Thunderstorms 75 23.9 73 22.8 94 94 VRB 3 6 30.12 1020 10 16 0.00 0.03
9:14 pm 21:14 Mostly Cloudy with Thunderstorms 75 23.9 73 22.8 94 94 VRB 3 6 30.12 1020 10 16 0.00 0.03
9:26 pm 21:26 Cloudy with Thunderstorms 75 23.9 74 23.3 96 96 VRB 5 7 30.12 1020 7 11 0.01 0.25
9:33 pm 21:33 Cloudy with Nearby Thunderstorms 75 23.9 74 23.3 96 96 VRB 5 7 30.12 1020 7 11 0.01 0.25
9:53 pm 21:53 Partly Cloudy with Light Rain 75 23.9 73 22.8 94 94 NNE 6 9 30.10 1019 10 16 0.02 0.51
10:53 pm 22:53 Cloudy 75 23.9 73 22.8 94 94 Calm 30.09 1019 10 16 0.00 0.03
11:53 pm 23:53 Cloudy 75 23.9 73 22.8 94 94 Calm 30.09 1019 8 13 0.00 0.00

Powered by AerisWeather